Location: Peterborough
(44.3091°N, 78.3197°W)
Time: 00:36:20
(UTC-04:00)

Vanguard 1 Rocket - Pass Details

Date: 30 March 2023
Orbit: 655 x 4220 km, 34.3° (Epoch: 02 June)

Event Time Altitude Azimuth Distance (km) Brightness Sun altitude
Rises 18:56:02 0° 185° (S) 7,841 12.3 6.6°
Reaches altitude 10° 19:03:45 10° 171° (S) 7,194 11.9 5.3°
Maximum altitude 19:19:30 21° 133° (SE) 6,479 11.3 2.4°
Drops below altitude 10° 19:34:17 10° 95° (E) 6,864 11.2 -0.2°
Sets 19:41:04 0° 81° (E) 7,420 11.4 -1.4°
